TITAN 3C TRANSTAGE DEB, 39297

Orbit data source: Space-Track

TITAN 3C TRANSTAGE DEB, 39297 is space debris in GEO originally from a launch on Thu, 26 Sep 1968 UTC launched from the Air Force Eastern Test Range (AFETR). Debris objects in space refer to the collection of defunct objects orbiting the Earth. Examples of debris include non-operational satellites, rocket bodies, and fragments generated from explosions, collisions, or faulty payload assembly.

Not visible in the next 10 days
Identifier
39297, 1968-081AH
Orbit
GEO
Country
Flag of USUS
Related business
Manufacturer
Unknown
Mission
Spacecraft
Bus & Motor
Unknown
Mass
Unknown
Launch date (UTC)
1968-09-26 (58 years ago)
Launch vehicle
Unknown
Launch site
Air Force Eastern Test Range (AFETR)
Object type
Payload
Rocket body
Debris
Shape & HBR
Unknown shape, 1.1 m
Radar Cross Section
RCS unknown

Expand to show TLE details & history
Last TLE update: 1 day ago

TLE from 1 day ago
0 TITAN 3C TRANSTAGE DEB
1 39297U 68081AH  26111.21719198 -.00000316  00000-0  00000+0 0  9992
2 39297   1.5437  21.7187 0207096 312.3408  45.3989  1.00424156 15909
Epoch: 2026-04-21T05:12Z
TLE epoch observation values (Epoch: 2026-04-21T05:12:45.387Z)
Latitude
0.00001°
Longitude
93.68358°
Altitude
35,139.044 km
Speed
3.121 km/s
True Right ascension
01h 24m 40s
True Declination
0° 00' 00"
Sunlit
Object was in daylight at epoch
Visualization orbit readout
Latitude
Unknown
Longitude
Unknown
Altitude
Unknown
Speed
Unknown
Apparent Right ascension
Unknown
Apparent Declination
Unknown
Sunlit
N/A
Visualization observer readout
Local Sidereal Time
17:53:04
Azimuth
Unknown
Elevation
Unknown
Doppler factor
Unknown
Orbital elements
Apogee altitude
36,617.358 km
Perigee altitude
34,872.651 km
Semi-major axis
42,123.142 km
Eccentricity
0.02071
Inclination
1.5437°
RAAN
21.7187°
Arg. of periapsis
312.3408°
True anomaly
47.11961°
Mean anomaly
45.3989°
Eccentric anomaly
46.25613°
Mean motion
0.25105 °/min
Orbital period
1,433.97 mins
BSTAR
0
Loading maneuver chart data...
Computing Atmospheric mass density...

Documentation

Showing up to 5 results
|